[[{"header":{"parameterUnit":"m.s-1","parameterCategory":1,"la1":30.2991,"la2":30.254,"lo1":-89.0895,"lo2":-89.0444,"dy":0.0017,"dx":0.0017,"nx":28,"ny":28,"refTime":"2023-07-23T09:00:00:Z","depth":0,"parameterNumber":2,"parameterNumberName":"U-component_of_WINDS"},"data":[0,0,0,0,0,0,0,0,0,0,0,0,0,0,0,0,0,0,0,0,0,0,0,0,0,0,0,0,0,0,0,0,0,0,0,0,0,0,0,0,0,0,0,0,0,0,0,0,0,0,0,0,0,0,0,0,0,0,1.7091,1.7091,0,1.7141,1.7142,1.7142,1.7125,1.7124,1.7123,1.7122,1.7173,1.7175,1.7178,0,0,0,0,0,0,0,0,0,0,0,0,0,1.6978,1.698,1.7091,1.7091,1.7092,1.7141,1.7142,1.7142,1.7126,1.7124,1.7123,1.7122,1.7172,1.7175,1.7178,0,0,0,0,0,0,0,0,0,0,0,0,0,1.7027,1.6981,1.709,1.7089,1.709,1.7141,1.7142,1.7143,1.7126,1.7124,1.7122,1.7121,1.7171,1.7175,1.7178,1.7233,0,0,1.7189,1.7191,0,0,0,0,0,0,0,0,1.7025,1.7031,1.7089,1.709,1.709,1.7125,1.7121,1.7173,1.7126,1.7112,1.7122,1.712,1.7158,1.7163,1.7176,1.7236,1.7238,1.719,1.7192,1.7193,1.7194,0,0,0,0,0,0,0,1.7021,1.7029,1.7111,1.709,1.7091,1.7086,1.7091,1.713,1.7144,1.7113,1.7112,1.7118,1.7158,1.7173,1.7177,1.7239,1.7189,1.7193,1.7195,1.7196,1.7343,1.7345,0,0,0,0,0,0,1.7018,1.7026,1.7109,1.7112,1.7053,1.7089,1.7095,1.7116,1.7143,1.7146,1.712,1.7117,1.7167,1.7173,1.7179,1.7243,1.7193,1.7197,1.7199,1.7342,1.7344,1.7346,0,0,0,0,0,0,1.7015,1.7025,1.7107,1.7069,1.7079,1.7093,1.7116,1.7117,1.7132,1.7148,1.715,1.7132,1.7166,1.7174,1.7219,1.7244,1.7198,1.7201,1.7339,1.7342,1.7345,1.7373,0,0,0,0,0,0,1.7012,1.7024,1.7046,1.707,1.7081,1.7147,1.7118,1.712,1.7138,1.7135,1.716,1.7163,1.7166,1.7214,1.7223,1.7248,1.7204,1.7337,1.7341,1.7344,1.7369,1.7376,1.7381,0,0,0,0,0,1.7008,1.7052,1.7047,1.7057,1.7108,1.7149,1.7155,1.7158,1.714,1.7161,1.7172,1.7162,1.7241,1.7219,1.7229,1.7256,1.7336,1.734,1.7344,1.7367,1.7375,1.7381,0,0,0,0,0,0,1.7031,1.7055,1.705,1.7103,1.7124,1.7146,1.7173,1.7166,1.7192,1.7189,1.7191,1.7196,1.7243,1.7254,1.7229,1.7309,1.7285,1.7292,1.73,1.7307,1.7313,1.7308,1.7207,0,0,0,0,0,1.7042,1.7073,1.7093,1.7138,1.7149,1.7159,1.7177,1.7177,1.7198,1.7207,1.7221,1.7242,1.7271,1.729,1.7318,1.7372,1.7376,1.7395,1.7401,1.7406,1.741,1.7437,1.7445,1.7359,1.7359,1.7359,0,0,1.7066,1.7083,1.7102,1.7143,1.7159,1.719,1.7166,1.7201,1.7224,1.7212,1.7255,1.7266,1.729,1.7339,1.7361,1.735,1.7435,1.7411,1.7414,1.7416,1.7442,1.745,1.7457,1.7361,1.7361,1.736,0,0,1.7124,1.7141,1.7179,1.7196,1.722,1.7227,1.7236,1.7259,1.7265,1.7309,1.73,1.7327,1.7378,1.7394,1.7409,1.7473,1.7464,1.7482,1.7512,1.7538,1.7545,1.7551,1.7571,1.7579,1.7487,1.7487,1.7487,0,1.715,1.7197,1.72,1.7234,1.7251,1.7242,1.728,1.7296,1.7329,1.734,1.7327,1.7389,1.7405,1.7456,1.7472,1.7485,1.7494,1.7478,1.7544,1.755,1.7555,1.7575,1.7583,1.7489,1.7488,1.7488,1.7488,0,1.7226,1.7259,1.7287,1.7317,1.7338,1.7374,1.7381,1.7402,1.74,1.7408,1.7451,1.7469,1.7499,1.7512,1.7511,1.7563,1.7555,1.7543,1.7519,1.7565,1.7583,1.7591,1.7491,1.7491,1.749,1.749,0,0,1.7299,1.7331,1.7341,1.7354,1.738,1.7405,1.744,1.747,1.7486,1.7509,1.7537,1.758,1.7568,1.7586,1.7586,1.761,1.7655,1.7594,1.7595,1.7603,1.7711,1.7718,1.7727,1.7651,1.7652,1.7653,1.7708,0,1.7358,1.7419,1.7422,1.7478,1.7507,1.7498,1.7529,1.7548,1.7556,1.7581,1.759,1.7619,1.7603,1.7613,1.7635,1.7645,1.7677,1.7641,1.7675,1.7676,1.7667,1.7737,1.7745,1.7796,1.7716,1.7717,1.7718,0,1.7434,1.7458,1.7516,1.7537,1.7549,1.7576,1.7602,1.7627,1.7648,1.7652,1.7671,1.7668,1.7702,1.7679,1.7725,1.7701,1.7716,1.7722,1.7724,1.7726,1.7698,1.7738,1.7812,1.7819,1.7729,1.7728,1.7728,0,1.7478,1.7526,1.7566,1.7578,1.7603,1.7622,1.7634,1.7653,1.767,1.7693,1.7704,1.7731,1.7745,1.7766,1.777,1.7753,1.7816,1.7793,1.7819,1.7819,1.7831,1.783,1.7907,1.7844,1.7844,1.7844,1.7844,0,1.7541,1.7577,1.7586,1.7611,1.7649,1.7652,1.7691,1.7701,1.7718,1.7743,1.7739,1.7763,1.7768,1.7793,1.7796,1.7833,1.7841,1.7844,1.7844,1.7843,1.7842,1.785,1.7846,1.7846,1.7846,1.7845,1.7845,0,1.7597,1.7605,1.7648,1.7668,1.7674,1.7701,1.7718,1.7741,1.7749,1.7781,1.7789,1.78,1.7829,1.7835,1.787,1.7873,1.7916,1.7914,1.7908,1.7907,1.7932,1.7928,1.8015,1.8025,1.7958,1.7959,1.796,0,1.7635,1.7662,1.7685,1.7702,1.7714,1.7741,1.7758,1.7762,1.778,1.7805,1.7825,1.7853,1.7876,1.7922,1.7933,1.7959,1.7956,1.7985,1.796,1.7957,1.7954,1.7951,1.7953,1.7989,1.7989,1.799,1.799,0,1.7702,1.7705,1.773,1.7756,1.7776,1.7797,1.7816,1.783,1.7837,1.7857,1.7886,1.7904,1.7939,1.7966,1.7992,1.8003,1.7997,1.7998,1.8005,1.8003,1.7998,1.7999,1.7919,1.7996,1.7995,1.7995,1.7995,1.7994,1.7749,1.7772,1.7791,1.7818,1.7833,1.7851,1.7873,1.7883,1.7908,1.7936,1.7937,1.7968,1.7987,1.8021,1.8034,1.8058,1.8049,1.806,1.8062,1.8064,1.8065,1.7996,1.8063,1.8063,1.8063,1.8063,1.8063,0,1.7814,1.7825,1.7851,1.7878,1.7899,1.7892,1.7914,1.7931,1.7959,1.7977,1.7999,1.8032,1.8058,1.8071,1.8097,1.8114,1.8112,1.812,1.8118,1.812,1.8073,1.8063,1.8122,1.8121,1.8121,1.8121,1.8121,1.8121,1.7849,1.7886,1.7891,1.7935,1.7946,1.7977,1.7989,1.8005,1.802,1.8056,1.8078,1.8086,1.8102,1.8129,1.8152,1.8155,1.8164,1.8174,1.8175,1.813,1.8124,1.8118,1.8109,1.8176,1.8176,1.822,1.8221,1.8221]},{"header":{"parameterUnit":"m.s-1","parameterCategory":1,"la1":30.2991,"la2":30.254,"lo1":-89.0895,"lo2":-89.0444,"dy":0.0017,"dx":0.0017,"nx":28,"ny":28,"refTime":"2023-07-23T09:00:00:Z","depth":0,"parameterNumber":3,"parameterNumberName":"V-component_of_WINDS"},"data":[0,0,0,0,0,0,0,0,0,0,0,0,0,0,0,0,0,0,0,0,0,0,0,0,0,0,0,0,0,0,0,0,0,0,0,0,0,0,0,0,0,0,0,0,0,0,0,0,0,0,0,0,0,0,0,0,0,0,1.5156,1.5156,0,1.5196,1.5197,1.5197,1.5184,1.5183,1.5182,1.5181,1.5221,1.5223,1.5225,0,0,0,0,0,0,0,0,0,0,0,0,0,1.5065,1.5067,1.5156,1.5156,1.5157,1.5196,1.5197,1.5197,1.5184,1.5183,1.5182,1.5181,1.5221,1.5223,1.5225,0,0,0,0,0,0,0,0,0,0,0,0,0,1.5105,1.5068,1.5156,1.5155,1.5155,1.5196,1.5197,1.5197,1.5184,1.5183,1.5182,1.5181,1.522,1.5223,1.5226,1.5269,0,0,1.5234,1.5235,0,0,0,0,0,0,0,0,1.5103,1.5108,1.5155,1.5155,1.5156,1.5184,1.5179,1.5221,1.5185,1.5173,1.5181,1.518,1.521,1.5213,1.5224,1.5271,1.5272,1.5234,1.5236,1.5237,1.5238,0,0,0,0,0,0,0,1.51,1.5106,1.5172,1.5155,1.5156,1.5152,1.5156,1.5187,1.5198,1.5174,1.5173,1.5178,1.521,1.5221,1.5225,1.5273,1.5234,1.5237,1.5239,1.524,1.5356,1.5357,0,0,0,0,0,0,1.5097,1.5104,1.5171,1.5173,1.5126,1.5155,1.5159,1.5176,1.5198,1.52,1.5179,1.5178,1.5217,1.5221,1.5226,1.5277,1.5237,1.524,1.5242,1.5355,1.5356,1.5358,0,0,0,0,0,0,1.5095,1.5103,1.5169,1.5138,1.5146,1.5158,1.5176,1.5178,1.5189,1.5202,1.5204,1.5189,1.5216,1.5222,1.5258,1.5279,1.5241,1.5244,1.5353,1.5355,1.5357,1.5381,0,0,0,0,0,0,1.5093,1.5103,1.512,1.5139,1.5148,1.5201,1.5178,1.5179,1.5194,1.5192,1.5211,1.5213,1.5216,1.5254,1.5261,1.5282,1.5246,1.5351,1.5354,1.5356,1.5378,1.5383,1.5388,0,0,0,0,0,1.509,1.5125,1.5121,1.5129,1.517,1.5202,1.5208,1.521,1.5196,1.5212,1.5221,1.5213,1.5275,1.5258,1.5265,1.5287,1.535,1.5353,1.5356,1.5376,1.5382,1.5388,0,0,0,0,0,0,1.5108,1.5128,1.5123,1.5166,1.5183,1.52,1.5222,1.5217,1.5237,1.5235,1.5236,1.524,1.5277,1.5286,1.5266,1.533,1.531,1.5315,1.5323,1.5329,1.5334,1.5331,1.5248,0,0,0,0,0,1.5117,1.5142,1.5158,1.5194,1.5202,1.5211,1.5225,1.5225,1.5242,1.5249,1.526,1.5276,1.5299,1.5315,1.5337,1.5379,1.5383,1.5398,1.5403,1.5407,1.5411,1.5433,1.544,1.5368,1.5368,1.5368,0,0,1.5136,1.515,1.5166,1.5198,1.5211,1.5236,1.5217,1.5244,1.5263,1.5253,1.5288,1.5296,1.5314,1.5354,1.5371,1.5362,1.5431,1.5411,1.5414,1.5416,1.5437,1.5443,1.5449,1.537,1.537,1.537,0,0,1.5183,1.5197,1.5228,1.5241,1.5261,1.5266,1.5273,1.5291,1.5296,1.5331,1.5324,1.5345,1.5386,1.5399,1.541,1.5461,1.5454,1.5468,1.5494,1.5515,1.5521,1.5525,1.5543,1.5549,1.5472,1.5472,1.5472,0,1.5204,1.5243,1.5244,1.5272,1.5286,1.5278,1.5309,1.5322,1.5348,1.5357,1.5346,1.5396,1.5407,1.5449,1.5461,1.5471,1.5479,1.5466,1.552,1.5525,1.5529,1.5546,1.5552,1.5474,1.5474,1.5474,1.5473,0,1.5267,1.5293,1.5316,1.5341,1.5358,1.5387,1.5392,1.5408,1.5407,1.5412,1.5447,1.5461,1.5485,1.5495,1.5494,1.5536,1.553,1.5519,1.55,1.5538,1.5553,1.556,1.5476,1.5476,1.5475,1.5475,0,0,1.5328,1.5353,1.5361,1.5372,1.5392,1.5412,1.5441,1.5465,1.5478,1.5496,1.5519,1.5553,1.5543,1.5556,1.5556,1.5575,1.5613,1.5562,1.5562,1.5571,1.5659,1.5667,1.5674,1.5609,1.561,1.5611,1.5658,0,1.5376,1.5427,1.5428,1.5474,1.5498,1.549,1.5515,1.5529,1.5535,1.5556,1.5562,1.5585,1.5571,1.5579,1.5597,1.5605,1.5631,1.5601,1.5629,1.563,1.5625,1.5682,1.5691,1.5734,1.5664,1.5665,1.5666,0,1.544,1.546,1.5508,1.5524,1.5534,1.5556,1.5577,1.5597,1.5613,1.5616,1.5631,1.5627,1.5655,1.5635,1.5673,1.5652,1.5664,1.5669,1.5671,1.5673,1.565,1.5686,1.5748,1.5755,1.5675,1.5674,1.5674,0,1.5479,1.5517,1.555,1.556,1.558,1.5595,1.5604,1.5619,1.5633,1.5651,1.566,1.5681,1.5693,1.5709,1.5711,1.5696,1.5749,1.5729,1.5751,1.5751,1.5763,1.5762,1.5827,1.5771,1.577,1.577,1.577,0,1.5532,1.5562,1.5568,1.5589,1.5621,1.5622,1.5654,1.5661,1.5674,1.5696,1.569,1.571,1.5712,1.5732,1.5734,1.5764,1.5769,1.5772,1.5772,1.5772,1.5772,1.578,1.5777,1.5772,1.5772,1.5771,1.5771,0,1.5581,1.5587,1.5622,1.5638,1.5642,1.5666,1.5678,1.5697,1.5702,1.5729,1.5735,1.5743,1.5766,1.577,1.5797,1.5798,1.5835,1.5832,1.583,1.5829,1.5851,1.5849,1.5924,1.5933,1.5871,1.5871,1.5872,0,1.5615,1.5638,1.5655,1.5669,1.5679,1.5702,1.5715,1.5717,1.5731,1.5751,1.5767,1.579,1.5808,1.5846,1.5853,1.5874,1.5871,1.5896,1.5874,1.5873,1.587,1.5869,1.5871,1.59,1.59,1.5901,1.5901,0,1.5675,1.5676,1.5696,1.5718,1.5734,1.5751,1.5767,1.5778,1.5782,1.5798,1.5822,1.5836,1.5864,1.5886,1.5906,1.5914,1.5908,1.5908,1.5914,1.5915,1.5912,1.5913,1.584,1.5906,1.5906,1.5906,1.5905,1.5905,1.5717,1.5736,1.5751,1.5774,1.5786,1.58,1.5819,1.5826,1.5846,1.5868,1.5868,1.5894,1.5908,1.5934,1.5944,1.5963,1.5955,1.5964,1.5967,1.5969,1.5971,1.5909,1.5967,1.5967,1.5967,1.5967,1.5967,0,1.5775,1.5784,1.5805,1.5827,1.5845,1.5838,1.5854,1.5869,1.5892,1.5906,1.5924,1.5951,1.5972,1.5981,1.6001,1.6015,1.6013,1.6021,1.6019,1.6021,1.5977,1.5969,1.6022,1.6022,1.6022,1.6022,1.6022,1.6022,1.5808,1.584,1.5843,1.588,1.5888,1.5914,1.5924,1.5937,1.5948,1.5978,1.5996,1.6001,1.6013,1.6034,1.6053,1.6055,1.6062,1.6071,1.6072,1.603,1.6024,1.6019,1.6012,1.6073,1.6073,1.6114,1.6114,1.6115]}]]